NOAA NWS Hourly Roundups by Site

Regional Weather Roundup for Topeka, KS

To Select Another Site Choose from List

Select Site:  

000
ASUS43 KTOP 221759
RWRKS

WEATHER ROUNDUP FOR KANSAS
NATIONAL WEATHER SERVICE GOODLAND KS
100 PM CDT MON JUL 22 2019

NOTE:  "FAIR" INDICATES FEW OR NO CLOUDS BELOW 12,000 FEET WITH NO
SIGNIFICANT WEATHER AND/OR OBSTRUCTIONS TO VISIBILITY.

KSZ001>006-013>018-027>032-041>047-221900-
NORTHWEST KANSAS

CITY           SKY/WX    TMP DP  RH WIND       PRES   REMARKS
GOODLAND       CLOUDY    72  60  66 CALM      30.37F
6HR MIN TEMP:  62; 6HR MAX TEMP:  73;

HAYS           SUNNY     80  55  42 NE13G20   30.28F
HILL CITY      SUNNY     81  51  35 NE10G20   30.32F
6HR MIN TEMP:  62; 6HR MAX TEMP:  81;

RUSSELL        PTSUNNY   82  56  40 NE12G25   30.26F
6HR MIN TEMP:  63; 6HR MAX TEMP:  83;

$$

KSZ061>065-074>080-084>089-221900-
SOUTHWEST KANSAS

CITY           SKY/WX    TMP DP  RH WIND       PRES   REMARKS
DODGE CITY     SUNNY     80  57  45 NE15      30.29F
6HR MIN TEMP:  65; 6HR MAX TEMP:  80;

GARDEN CITY    SUNNY     78  58  49 N12       30.31F
6HR MIN TEMP:  64; 6HR MAX TEMP:  78;

GREAT BEND     SUNNY     81  56  42 NE15      30.26F
LIBERAL        CLOUDY    73  62  68 NE14      30.33S
$$

KSZ066>073-081>083-090>101-221900-
SOUTHEAST KANSAS

CITY           SKY/WX    TMP DP  RH WIND       PRES   REMARKS
CHANUTE        SUNNY     84  60  44 NE16G23   30.15S
6HR MIN TEMP:  72; 6HR MAX TEMP:  84;

COFFEYVILLE    SUNNY     83  61  47 NE20G29   30.12R
6HR MIN TEMP:  72; 6HR MAX TEMP:  84;

HUTCHINSON     SUNNY     83  58  42 NE14G23   30.22F
6HR MIN TEMP:  66; 6HR MAX TEMP:  84;

MEDICINE LODGE   N/A     84  55  36 NE14G23   30.21F
NEWTON           N/A     81  59  47 NE17G26   30.22S
PARSONS        SUNNY     82  63  52 N10G22    30.15S
6HR MIN TEMP:  71; 6HR MAX TEMP:  82;

WICHITA INTL   MOSUNNY   85  57  38 NE13G26   30.19F
6HR MIN TEMP:  71; 6HR MAX TEMP:  85;

WICHITA JABRA  SUNNY     83  58  42 NE16G28   30.19F
6HR MIN TEMP:  68; 6HR MAX TEMP:  84;

WICHITA MCCONL SUNNY     82  55  39 NE18G26   30.19
WINFIELD       SUNNY     83  57  41 NE18G26   30.19S
6HR MIN TEMP:  71; 6HR MAX TEMP:  83;

$$

KSZ007>012-019>026-033>040-048>060-102>105-221900-
NORTHEAST KANSAS

CITY           SKY/WX    TMP DP  RH WIND       PRES   REMARKS
CONCORDIA      SUNNY     81  59  47 N14G23    30.27S
6HR MIN TEMP:  65; 6HR MAX TEMP:  81;

EMPORIA        PTSUNNY   82  63  52 N17G26    30.19S
6HR MIN TEMP:  66; 6HR MAX TEMP:  82;

LAWRENCE       MOSUNNY   82  61  48 N12       30.17F
6HR MIN TEMP:  68; 6HR MAX TEMP:  83;

MANHATTAN      SUNNY     81  59  47 N13G23    30.22S
6HR MIN TEMP:  68; 6HR MAX TEMP:  81;

OLATHE IND     MOSUNNY   79  62  56 N15       30.17F
6HR MIN TEMP:  66; 6HR MAX TEMP:  80;

OLATHE EXE     MOSUNNY   78  61  55 N16G22    30.16S
6HR MIN TEMP:  67; 6HR MAX TEMP:  80;

SALINA         SUNNY     83  56  39 N17G26    30.24S
6HR MIN TEMP:  65; 6HR MAX TEMP:  83;

TOPEKA BILLARD SUNNY     81  58  45 N14G25    30.19S
6HR MIN TEMP:  67; 6HR MAX TEMP:  81;

TOPEKA FORBES  SUNNY     81  60  48 NE13G23   30.19S
6HR MIN TEMP:  67; 6HR MAX TEMP:  81;

$$



 

View Past Reports for Topeka, KS.

Products Courtesy of NOAA-NWS
NWS Information Parsing Script by Ken True at Saratoga Weather - Script by SE Lincoln Weather.